Other Surface Observations
Issued by NWS

Home | Current Version | Previous Version | Text Only | Print | Product List | Glossary On
Versions: 1 2 3 4 5 6 7 8 9 10 11 12 13 14 15 16 17 18 19 20 21 22 23 24 25 26 27 28 29 30 31 32 33 34 35 36 37 38 39 40 41 42 43 44 45 46 47 48 49 50
000
SXUS52 KTAE 172318
OSOTAE
OSOTAE
North Florida/South Alabama/Southwest Georgia Weather Roundup
National Weather Service Tallahassee Florida
600 PM EST WED DEC 17 2014

Note: "fair" indicates few or no clouds below 12,000 feet with no
significant weather and/or obstructions to visibility.

!FLZ017-115-028-034-025-180000
...North Florida...

CITY           SKY/WX    TMP DP  RH WIND       PRES   REMARKS
TALLAHASSEE    MOCLDY    56  43  61 CALM      30.14R
APALACHICOLA   CLOUDY    55  44  66 W5        30.15R
PERRY          MOCLDY    53  44  71 CALM      30.13F
CROSS CITY       N/A     54  42  64 W5        30.14R
JACKSONVILLE   MOCLDY    54  46  74 W3        30.12R
$$

!FLZ112-006-005-002-011-180000
...Florida Panhandle...

CITY           SKY/WX    TMP DP  RH WIND       PRES   REMARKS
MARIANNA       CLOUDY    56  46  69 W3        30.15R
BONIFAY        FAIR      52  46  80 CALM      30.18R
PANAMA CITY NW FAIR      54  45  71 CALM      30.16R
TYNDALL AFB    CLOUDY    53  45  74 NW5       30.17R
TYND DRONE APT NOT AVBL
DE FUNIAK SPR  FAIR      54  43  66 CALM      30.18R
EGLIN AFB      MOCLDY    55  43  63 N6        30.18R
DESTIN         MOCLDY    57  45  64 CALM      30.18R
HURLBURT       PTCLDY    56  38  49 N6        30.17R
CRESTVIEW      PTCLDY    50  42  74 CALM      30.19S HAZE
PENSACOLA      PTCLDY    55  40  56 N5        30.18R
$$

!ALZ063-066-180000
...South Alabama...

CITY           SKY/WX    TMP DP  RH WIND       PRES   REMARKS
DOTHAN         CLOUDY    54  42  64 NW6       30.18S HAZE
OZARK CAIRNS   MOCLDY    56  42  61 NW3       30.16R
FT RUCKER HELI MOCLDY    53  43  68 NW5       30.16R
RUCKER HELI 3  FAIR      53  43  68 NW2       30.18S
RUCKER HELI 2  FAIR      53  43  68 NW3       30.16R
FLORALA APT    PTCLDY    52  44  74 CALM      30.19R
ANDALUSIA      PTCLDY    57  41  55 NW3       30.17R
TROY           PTCLDY    53  39  59 NW5       30.18R
EUFALA         FAIR      51  43  74 CALM      30.15R
MOBILE         PTCLDY    52  41  66 CALM      30.19F
$$

!GAZ120>161-180000
...Southwest and South Central Georgia...

CITY           SKY/WX    TMP DP  RH WIND       PRES   REMARKS
THOMASVILLE    FAIR      54  45  71 W3        30.15R
BAINBRIDGE     CLOUDY    54  48  82 SW3       30.16R
MOODY AFB      MOCLDY    53  43  67 CALM      30.12F
VALDOSTA       MOCLDY    51  44  77 CALM      30.12F
MOULTRIE       MOCLDY    54  46  76 CALM      30.14R
BLAKELY        CLOUDY    54  46  76 CALM      30.16S
ALBANY         PTCLDY    52  45  77 W3        30.16R
TIFTON         FAIR      56  41  57 CALM      30.12S
FITZGERALD     FAIR      52  40  65 CALM      30.13F
CORDELE        FAIR      53  43  66 CALM      30.14R
AMERICUS       FAIR      54  41  62 W3        30.16R
HOMERVILLE     FAIR      55  50  82 CALM      30.12S
$$

!GMZ750-755-770-775-180000
...Coastal and Buoy Obs...

STATION/POSITION TIME  TEMP    WIND        PRES    VSBY  WAVE
                       AIR SEA DIR/SP/G                  HT/PER
                 (UTC) (F)     (DEG/KT/KT) (MB)    (MI)  (FT/S)
KEATON BEACH     2300   56     270/  6/  7 1020.7F
CEDAR KEY        2300   57     310/  7/ 10 1021.3R
C TOWER          2300   57     290/ 13/ 14 1021.1R
APALACHICOLA BUO 2300   63 71   10/  2/  4 1020.6F         2/ 5
PANAMA CITY BUOY 2248   62 76  350/  8/ 10 1021.6R         2/ 5
MOBILE BUOY      2300   60 74  360/  8/ 12 1021.5F         2/ 5
ORANGE BCH AL BU 2300   57 65  290/  6/  8 1021.6S         1
$$



USA.gov is the U.S. government's official web portal to all federal, state and local government web resources and services.